User: anonymous   Login
Location: Coupvray
(48.8929°N, 2.7967°E)
Time: 00:43:30
(UTC+00:00)
Language:

Cosmos 724 - Orbit

View from above orbital plane
View from above orbital plane
View from above satellite
View from above satellite

Ground track
Ground track

The orbit data is extracted from the following two-line orbital elements,

1  7727U 75025A   20272.52670361 -.00000059 +00000-0 +19589-4 0  9996
2  7727 065.5887 079.5179 0057776 351.2375 008.7683 13.98925704323659
Epoch (UTC): 28 September 2020 12:38:27
Eccentricity: 0.0057776
inclination: 65.5887°
perigee height: 855 km
apogee height: 939 km
right ascension of ascending node: 79.5179°
argument of perigee: 351.2375°
revolutions per day: 13.98925704
mean anomaly at epoch: 8.7683°
orbit number at epoch: 32365

The dashed part of the orbit path shows where the satellite is in the earth's shadow,  

DLR